| time (UTC) | temp F | wind direction | speed MPH | gust MPH | rain 1hr in | rain 24hr in | rain mn in | humidity % | barometer mb |
| 20260903042543 | 79 | 194 | 0.0 | 3.0 | 0.00 | 0.00 | 0.00 | 68 | 1016.3 |
| 20260903042043 | 79 | 0 | 0.0 | 1.0 | 0.00 | 0.00 | 0.00 | 67 | 1016.3 |
| 20260903041603 | 80 | 141 | 0.0 | 2.0 | 0.00 | 0.00 | 0.00 | 67 | 1016.4 |
| 20260903041042 | 80 | 138 | 0.0 | 2.0 | 0.00 | 0.00 | 0.00 | 67 | 1016.4 |
| 20260903040543 | 80 | 0 | 0.0 | 2.0 | 0.00 | 0.00 | 0.00 | 67 | 1016.4 |
| 20260903040105 | 80 | 150 | 0.0 | 1.0 | 0.00 | 0.00 | 0.00 | 66 | 1016.3 |
| 20260903035543 | 80 | 144 | 0.0 | 2.0 | 0.00 | 0.00 | 0.00 | 66 | 1016.4 |
| 20260903035044 | 80 | 152 | 0.0 | 2.0 | 0.00 | 0.00 | 0.00 | 66 | 1016.6 |
| 20260903034607 | 80 | 153 | 0.0 | 2.0 | 0.00 | 0.00 | 0.00 | 65 | 1016.5 |
| 20260903034045 | 80 | 0 | 0.0 | 2.0 | 0.00 | 0.00 | 0.00 | 65 | 1016.4 |
| 20260903033546 | 81 | 0 | 0.0 | 3.0 | 0.00 | 0.00 | 0.00 | 64 | 1016.3 |
| 20260903033104 | 81 | 184 | 0.0 | 3.0 | 0.00 | 0.00 | 0.00 | 64 | 1016.2 |
| 20260903032542 | 81 | 134 | 0.0 | 4.0 | 0.00 | 0.00 | 0.00 | 63 | 1016.2 |
| 20260903032044 | 81 | 143 | 1.0 | 4.0 | 0.00 | 0.00 | 0.00 | 63 | 1016.2 |
| 20260903031559 | 81 | 215 | 1.0 | 4.0 | 0.00 | 0.00 | 0.00 | 63 | 1016.2 |
| 20260903031045 | 81 | 142 | 0.0 | 2.0 | 0.00 | 0.00 | 0.00 | 63 | 1016.2 |
| 20260903030543 | 81 | 136 | 0.0 | 1.0 | 0.00 | 0.00 | 0.00 | 63 | 1016.2 |
| 20260903030059 | 81 | 167 | 0.0 | 3.0 | 0.00 | 0.00 | 0.00 | 63 | 1016.2 |
| 20260903025543 | 81 | 0 | 0.0 | 3.0 | 0.00 | 0.00 | 0.00 | 62 | 1016.2 |
| 20260903025043 | 81 | 0 | 0.0 | 3.0 | 0.00 | 0.00 | 0.00 | 62 | 1016.1 |
| 20260903024603 | 82 | 138 | 0.0 | 2.0 | 0.00 | 0.00 | 0.00 | 61 | 1016.1 |
| 20260903024042 | 82 | 138 | 0.0 | 2.0 | 0.00 | 0.00 | 0.00 | 61 | 1016.1 |
| 20260903023542 | 82 | 148 | 1.0 | 2.0 | 0.00 | 0.00 | 0.00 | 60 | 1015.9 |
| 20260903023107 | 82 | 142 | 1.0 | 2.0 | 0.00 | 0.00 | 0.00 | 60 | 1015.9 |
| 20260903022542 | 83 | 151 | 1.0 | 3.0 | 0.00 | 0.00 | 0.00 | 60 | 1015.8 |
| 20260903022043 | 83 | 127 | 1.0 | 3.0 | 0.00 | 0.00 | 0.00 | 59 | 1015.8 |
| 20260903021602 | 83 | 0 | 0.0 | 3.0 | 0.00 | 0.00 | 0.00 | 59 | 1015.7 |
| 20260903021043 | 83 | 148 | 0.0 | 3.0 | 0.00 | 0.00 | 0.00 | 58 | 1015.6 |
| 20260903020546 | 83 | 140 | 1.0 | 3.0 | 0.00 | 0.00 | 0.00 | 57 | 1015.7 |
| 20260903020106 | 84 | 138 | 1.0 | 3.0 | 0.00 | 0.00 | 0.00 | 57 | 1015.6 |
| 20260903015543 | 84 | 140 | 1.0 | 3.0 | 0.00 | 0.00 | 0.00 | 57 | 1015.5 |
| 20260903015046 | 84 | 136 | 1.0 | 3.0 | 0.00 | 0.00 | 0.00 | 56 | 1015.4 |
| 20260903014613 | 84 | 128 | 1.0 | 3.0 | 0.00 | 0.00 | 0.00 | 56 | 1015.4 |
| 20260903014042 | 84 | 138 | 0.0 | 2.0 | 0.00 | 0.00 | 0.00 | 56 | 1015.3 |
| 20260903013544 | 84 | 129 | 1.0 | 2.0 | 0.00 | 0.00 | 0.00 | 55 | 1015.2 |
| 20260903013110 | 84 | 128 | 0.0 | 1.0 | 0.00 | 0.00 | 0.00 | 55 | 1015.1 |
| 20260903012543 | 85 | 0 | 0.0 | 1.0 | 0.00 | 0.00 | 0.00 | 55 | 1015.2 |
| 20260903012043 | 85 | 132 | 0.0 | 1.0 | 0.00 | 0.00 | 0.00 | 55 | 1015.1 |
| 20260903011611 | 85 | 129 | 0.0 | 1.0 | 0.00 | 0.00 | 0.00 | 54 | 1015.0 |
| 20260903011043 | 85 | 0 | 0.0 | 1.0 | 0.00 | 0.00 | 0.00 | 54 | 1014.9 |
| 20260903010544 | 85 | 0 | 0.0 | 1.0 | 0.00 | 0.00 | 0.00 | 54 | 1015.0 |
| 20260903010059 | 85 | 0 | 0.0 | 0.0 | 0.00 | 0.00 | 0.00 | 53 | 1015.0 |
| 20260903005543 | 86 | 0 | 0.0 | 0.0 | 0.00 | 0.00 | 0.00 | 51 | 1015.0 |
| 20260903005043 | 87 | 0 | 0.0 | 0.0 | 0.00 | 0.00 | 0.00 | 51 | 1014.9 |
| 20260903004606 | 87 | 132 | 0.0 | 0.0 | 0.00 | 0.00 | 0.00 | 50 | 1014.9 |
| 20260903004043 | 88 | 0 | 0.0 | 1.0 | 0.00 | 0.00 | 0.00 | 49 | 1015.0 |
| 20260903003542 | 89 | 0 | 0.0 | 1.0 | 0.00 | 0.00 | 0.00 | 47 | 1015.0 |
| 20260903003101 | 90 | 136 | 0.0 | 1.0 | 0.00 | 0.00 | 0.00 | 46 | 1015.0 |
| 20260903002544 | 91 | 0 | 0.0 | 1.0 | 0.00 | 0.00 | 0.00 | 45 | 1014.9 |
| 20260903002046 | 92 | 140 | 0.0 | 0.0 | 0.00 | 0.00 | 0.00 | 44 | 1015.0 |
| 20260903001608 | 92 | 0 | 0.0 | 1.0 | 0.00 | 0.00 | 0.00 | 44 | 1015.0 |
| 20260903001042 | 93 | 0 | 0.0 | 1.0 | 0.00 | 0.00 | 0.00 | 43 | 1015.0 |
| 20260903000542 | 93 | 0 | 0.0 | 2.0 | 0.00 | 0.00 | 0.00 | 42 | 1015.0 |
| 20260903000107 | 93 | 0 | 0.0 | 2.0 | 0.00 | 0.00 | 0.00 | 42 | 1015.0 |
| 20260902235543 | 93 | 0 | 0.0 | 2.0 | 0.00 | 0.00 | 0.00 | 42 | 1015.0 |
| 20260902235045 | 93 | 0 | 0.0 | 7.0 | 0.00 | 0.00 | 0.00 | 42 | 1015.0 |
| 20260902234606 | 93 | 175 | 1.0 | 7.0 | 0.00 | 0.00 | 0.00 | 42 | 1015.0 |
| 20260902234045 | 93 | 136 | 1.0 | 4.0 | 0.00 | 0.00 | 0.00 | 41 | 1015.0 |
| 20260902233543 | 93 | 152 | 1.0 | 4.0 | 0.00 | 0.00 | 0.00 | 41 | 1015.0 |
| 20260902233106 | 93 | 195 | 1.0 | 3.0 | 0.00 | 0.00 | 0.00 | 41 | 1015.1 |
| 20260902232543 | 94 | 156 | 1.0 | 4.0 | 0.00 | 0.00 | 0.00 | 41 | 1015.1 |
| 20260902232043 | 94 | 172 | 1.0 | 5.0 | 0.00 | 0.00 | 0.00 | 41 | 1015.2 |
| 20260902231610 | 93 | 191 | 1.0 | 5.0 | 0.00 | 0.00 | 0.00 | 42 | 1015.1 |
| 20260902231044 | 94 | 126 | 0.0 | 6.0 | 0.00 | 0.00 | 0.00 | 42 | 1015.2 |
| 20260902230543 | 94 | 190 | 0.0 | 6.0 | 0.00 | 0.00 | 0.00 | 41 | 1015.3 |
| 20260902230107 | 94 | 144 | 2.0 | 5.0 | 0.00 | 0.00 | 0.00 | 41 | 1015.3 |
| 20260902225542 | 94 | 135 | 1.0 | 5.0 | 0.00 | 0.00 | 0.00 | 41 | 1015.2 |
| 20260902225042 | 94 | 163 | 1.0 | 5.0 | 0.00 | 0.00 | 0.00 | 42 | 1015.2 |
| 20260902224602 | 94 | 210 | 1.0 | 4.0 | 0.00 | 0.00 | 0.00 | 41 | 1015.2 |
| 20260902224043 | 95 | 181 | 1.0 | 6.0 | 0.00 | 0.00 | 0.00 | 41 | 1015.3 |
| 20260902223543 | 95 | 138 | 1.0 | 6.0 | 0.00 | 0.00 | 0.00 | 43 | 1015.3 |
| 20260902223108 | 95 | 165 | 2.0 | 5.0 | 0.00 | 0.00 | 0.00 | 41 | 1015.3 |
| 20260902222545 | 95 | 211 | 1.0 | 6.0 | 0.00 | 0.00 | 0.00 | 40 | 1015.3 |
| 20260902222043 | 95 | 191 | 3.0 | 6.0 | 0.00 | 0.00 | 0.00 | 41 | 1015.4 |
| 20260902221600 | 96 | 198 | 1.0 | 6.0 | 0.00 | 0.00 | 0.00 | 40 | 1015.3 |
| 20260902221043 | 96 | 159 | 1.0 | 6.0 | 0.00 | 0.00 | 0.00 | 41 | 1015.3 |
| 20260902220545 | 97 | 171 | 3.0 | 6.0 | 0.00 | 0.00 | 0.00 | 39 | 1015.4 |
| 20260902220109 | 97 | 167 | 2.0 | 7.0 | 0.00 | 0.00 | 0.00 | 39 | 1015.4 |
| 20260902215544 | 97 | 151 | 1.0 | 7.0 | 0.00 | 0.00 | 0.00 | 38 | 1015.3 |
| 20260902215042 | 97 | 173 | 3.0 | 7.0 | 0.00 | 0.00 | 0.00 | 40 | 1015.4 |
| 20260902214604 | 96 | 0 | 2.0 | 8.0 | 0.00 | 0.00 | 0.00 | 41 | 1015.5 |
| 20260902214042 | 97 | 153 | 2.0 | 8.0 | 0.00 | 0.00 | 0.00 | 39 | 1015.5 |
| 20260902213542 | 97 | 133 | 3.0 | 8.0 | 0.00 | 0.00 | 0.00 | 39 | 1015.5 |
| 20260902213105 | 97 | 221 | 1.0 | 8.0 | 0.00 | 0.00 | 0.00 | 39 | 1015.5 |
| 20260902212543 | 97 | 185 | 3.0 | 8.0 | 0.00 | 0.00 | 0.00 | 38 | 1015.6 |
| 20260902212043 | 97 | 152 | 3.0 | 8.0 | 0.00 | 0.00 | 0.00 | 38 | 1015.6 |
| 20260902211608 | 98 | 167 | 1.0 | 8.0 | 0.00 | 0.00 | 0.00 | 39 | 1015.7 |
| 20260902211042 | 97 | 143 | 4.0 | 8.0 | 0.00 | 0.00 | 0.00 | 38 | 1015.7 |
| 20260902210543 | 97 | 106 | 2.0 | 6.0 | 0.00 | 0.00 | 0.00 | 41 | 1015.7 |
| 20260902210124 | 97 | 252 | 2.0 | 6.0 | 0.00 | 0.00 | 0.00 | 38 | 1015.8 |
| 20260902205542 | 97 | 196 | 2.0 | 6.0 | 0.00 | 0.00 | 0.00 | 39 | 1015.9 |
| 20260902205043 | 97 | 192 | 3.0 | 6.0 | 0.00 | 0.00 | 0.00 | 39 | 1015.9 |
| 20260902204607 | 97 | 245 | 2.0 | 7.0 | 0.00 | 0.00 | 0.00 | 40 | 1016.0 |
| 20260902204042 | 97 | 247 | 2.0 | 7.0 | 0.00 | 0.00 | 0.00 | 39 | 1016.0 |
| 20260902203542 | 97 | 198 | 2.0 | 7.0 | 0.00 | 0.00 | 0.00 | 42 | 1016.2 |
| 20260902203103 | 96 | 217 | 2.0 | 7.0 | 0.00 | 0.00 | 0.00 | 39 | 1016.1 |
| 20260902202545 | 96 | 221 | 2.0 | 6.0 | 0.00 | 0.00 | 0.00 | 41 | 1016.1 |
| 20260902202045 | 96 | 208 | 3.0 | 8.0 | 0.00 | 0.00 | 0.00 | 41 | 1016.3 |
| 20260902201606 | 96 | 221 | 1.0 | 9.0 | 0.00 | 0.00 | 0.00 | 41 | 1016.4 |
| 20260902201043 | 97 | 138 | 4.0 | 9.0 | 0.00 | 0.00 | 0.00 | 41 | 1016.5 |
| 20260902200543 | 96 | 190 | 3.0 | 9.0 | 0.00 | 0.00 | 0.00 | 42 | 1016.5 |
| 20260902200119 | 96 | 223 | 1.0 | 6.0 | 0.00 | 0.00 | 0.00 | 39 | 1016.6 |
| 20260902195543 | 97 | 240 | 2.0 | 9.0 | 0.00 | 0.00 | 0.00 | 41 | 1016.7 |
| 20260902195044 | 96 | 151 | 4.0 | 9.0 | 0.00 | 0.00 | 0.00 | 43 | 1016.8 |
| 20260902194609 | 96 | 190 | 2.0 | 9.0 | 0.00 | 0.00 | 0.00 | 42 | 1016.9 |
| 20260902194043 | 96 | 246 | 2.0 | 7.0 | 0.00 | 0.00 | 0.00 | 43 | 1017.1 |
| 20260902193545 | 96 | 311 | 1.0 | 7.0 | 0.00 | 0.00 | 0.00 | 40 | 1017.1 |
| 20260902193107 | 97 | 168 | 3.0 | 7.0 | 0.00 | 0.00 | 0.00 | 42 | 1017.2 |
| 20260902192542 | 96 | 0 | 2.0 | 7.0 | 0.00 | 0.00 | 0.00 | 44 | 1017.2 |
| 20260902192043 | 96 | 275 | 2.0 | 8.0 | 0.00 | 0.00 | 0.00 | 44 | 1017.3 |
| 20260902191602 | 96 | 132 | 2.0 | 8.0 | 0.00 | 0.00 | 0.00 | 42 | 1017.4 |
| 20260902191042 | 95 | 169 | 3.0 | 8.0 | 0.00 | 0.00 | 0.00 | 44 | 1017.5 |
| 20260902190543 | 95 | 146 | 3.0 | 5.0 | 0.00 | 0.00 | 0.00 | 45 | 1017.6 |
| 20260902185542 | 96 | 211 | 2.0 | 7.0 | 0.00 | 0.00 | 0.00 | 47 | 1017.7 |
| 20260902185044 | 96 | 257 | 2.0 | 7.0 | 0.00 | 0.00 | 0.00 | 46 | 1017.8 |
| 20260902184607 | 96 | 137 | 1.0 | 6.0 | 0.00 | 0.00 | 0.00 | 45 | 1017.8 |
| 20260902184042 | 95 | 175 | 3.0 | 8.0 | 0.00 | 0.00 | 0.00 | 50 | 1017.8 |
| 20260902183543 | 95 | 99 | 2.0 | 9.0 | 0.00 | 0.00 | 0.00 | 49 | 1017.9 |
| 20260902183105 | 95 | 128 | 3.0 | 9.0 | 0.00 | 0.00 | 0.00 | 49 | 1018.0 |
| 20260902182542 | 94 | 138 | 4.0 | 10.0 | 0.00 | 0.00 | 0.00 | 48 | 1018.0 |
| 20260902182044 | 95 | 252 | 3.0 | 10.0 | 0.00 | 0.00 | 0.00 | 48 | 1018.1 |
| 20260902181603 | 94 | 248 | 2.0 | 6.0 | 0.00 | 0.00 | 0.00 | 50 | 1018.1 |
| 20260902181043 | 94 | 212 | 1.0 | 6.0 | 0.00 | 0.00 | 0.00 | 48 | 1018.2 |
| 20260902180542 | 94 | 236 | 3.0 | 7.0 | 0.00 | 0.00 | 0.00 | 49 | 1018.3 |
| 20260902180131 | 95 | 221 | 2.0 | 7.0 | 0.00 | 0.00 | 0.00 | 46 | 1018.3 |
| 20260902175543 | 94 | 243 | 3.0 | 6.0 | 0.00 | 0.00 | 0.00 | 50 | 1018.4 |
| 20260902175043 | 94 | 219 | 2.0 | 7.0 | 0.00 | 0.00 | 0.00 | 50 | 1018.4 |
| 20260902174607 | 94 | 153 | 2.0 | 9.0 | 0.00 | 0.00 | 0.00 | 49 | 1018.5 |
| 20260902174042 | 94 | 240 | 3.0 | 9.0 | 0.00 | 0.00 | 0.00 | 51 | 1018.7 |
| 20260902173542 | 94 | 221 | 3.0 | 7.0 | 0.00 | 0.00 | 0.00 | 51 | 1018.7 |
| 20260902173104 | 93 | 166 | 4.0 | 7.0 | 0.00 | 0.00 | 0.00 | 52 | 1018.7 |
| 20260902172545 | 93 | 144 | 2.0 | 7.0 | 0.00 | 0.00 | 0.00 | 52 | 1018.7 |
| 20260902172043 | 93 | 232 | 2.0 | 10.0 | 0.00 | 0.00 | 0.00 | 52 | 1018.8 |
| 20260902171604 | 92 | 215 | 3.0 | 10.0 | 0.00 | 0.00 | 0.00 | 53 | 1018.8 |
| 20260902171043 | 93 | 268 | 2.0 | 7.0 | 0.00 | 0.00 | 0.00 | 52 | 1018.8 |
| 20260902170542 | 93 | 229 | 3.0 | 9.0 | 0.00 | 0.00 | 0.00 | 53 | 1018.9 |
| 20260902170106 | 92 | 278 | 3.0 | 9.0 | 0.00 | 0.00 | 0.00 | 53 | 1018.9 |
| 20260902165544 | 92 | 193 | 2.0 | 9.0 | 0.00 | 0.00 | 0.00 | 54 | 1019.0 |
| 20260902165043 | 92 | 215 | 3.0 | 9.0 | 0.00 | 0.00 | 0.00 | 54 | 1019.0 |
| 20260902164609 | 93 | 149 | 2.0 | 7.0 | 0.00 | 0.00 | 0.00 | 55 | 1018.9 |
| 20260902164043 | 93 | 172 | 2.0 | 6.0 | 0.00 | 0.00 | 0.00 | 55 | 1019.1 |
| 20260902163544 | 92 | 126 | 1.0 | 6.0 | 0.00 | 0.00 | 0.00 | 55 | 1019.1 |
| 20260902163106 | 92 | 127 | 1.0 | 7.0 | 0.00 | 0.00 | 0.00 | 56 | 1019.2 |
| 20260902162548 | 91 | 97 | 2.0 | 8.0 | 0.00 | 0.00 | 0.00 | 56 | 1019.3 |
| 20260902162044 | 91 | 232 | 4.0 | 8.0 | 0.00 | 0.00 | 0.00 | 56 | 1019.4 |
| 20260902161602 | 92 | 114 | 2.0 | 6.0 | 0.00 | 0.00 | 0.00 | 55 | 1019.4 |
| 20260902161043 | 91 | 193 | 3.0 | 5.0 | 0.00 | 0.00 | 0.00 | 57 | 1019.4 |
| 20260902160542 | 91 | 146 | 1.0 | 9.0 | 0.00 | 0.00 | 0.00 | 56 | 1019.5 |
| 20260902160112 | 91 | 264 | 1.0 | 10.0 | 0.00 | 0.00 | 0.00 | 57 | 1019.4 |
| 20260902155543 | 90 | 211 | 3.0 | 10.0 | 0.00 | 0.00 | 0.00 | 57 | 1019.4 |
| 20260902155043 | 90 | 261 | 4.0 | 8.0 | 0.00 | 0.00 | 0.00 | 57 | 1019.4 |
| 20260902154605 | 90 | 187 | 2.0 | 9.0 | 0.00 | 0.00 | 0.00 | 57 | 1019.4 |
| 20260902154043 | 90 | 240 | 3.0 | 10.0 | 0.00 | 0.00 | 0.00 | 57 | 1019.4 |
| 20260902153545 | 90 | 196 | 1.0 | 10.0 | 0.00 | 0.00 | 0.00 | 58 | 1019.3 |
| 20260902153103 | 90 | 257 | 2.0 | 6.0 | 0.00 | 0.00 | 0.00 | 58 | 1019.3 |
| 20260902152542 | 89 | 148 | 1.0 | 6.0 | 0.00 | 0.00 | 0.00 | 61 | 1019.2 |
| 20260902152044 | 88 | 116 | 2.0 | 11.0 | 0.00 | 0.00 | 0.00 | 61 | 1019.2 |
| 20260902151602 | 88 | 234 | 2.0 | 11.0 | 0.00 | 0.00 | 0.00 | 60 | 1019.2 |
| 20260902151043 | 88 | 236 | 5.0 | 11.0 | 0.00 | 0.00 | 0.00 | 60 | 1019.2 |
| 20260902150542 | 89 | 176 | 3.0 | 7.0 | 0.00 | 0.00 | 0.00 | 59 | 1019.1 |
| 20260902150106 | 88 | 232 | 1.0 | 8.0 | 0.00 | 0.00 | 0.00 | 61 | 1019.2 |
| 20260902145543 | 88 | 236 | 1.0 | 8.0 | 0.00 | 0.00 | 0.00 | 60 | 1019.3 |
| 20260902145046 | 88 | 168 | 1.0 | 5.0 | 0.00 | 0.00 | 0.00 | 62 | 1019.2 |
| 20260902144603 | 88 | 223 | 1.0 | 5.0 | 0.00 | 0.00 | 0.00 | 62 | 1019.2 |
| 20260902144044 | 87 | 167 | 1.0 | 4.0 | 0.00 | 0.00 | 0.00 | 63 | 1019.2 |
| 20260902143543 | 87 | 219 | 1.0 | 6.0 | 0.00 | 0.00 | 0.00 | 63 | 1019.2 |
| 20260902143108 | 86 | 136 | 1.0 | 7.0 | 0.00 | 0.00 | 0.00 | 65 | 1019.2 |
| 20260902142544 | 86 | 130 | 2.0 | 7.0 | 0.00 | 0.00 | 0.00 | 66 | 1019.1 |
| 20260902142042 | 85 | 154 | 2.0 | 7.0 | 0.00 | 0.00 | 0.00 | 65 | 1019.1 |
| 20260902141607 | 85 | 176 | 1.0 | 5.0 | 0.00 | 0.00 | 0.00 | 66 | 1019.1 |
| 20260902141042 | 84 | 175 | 1.0 | 5.0 | 0.00 | 0.00 | 0.00 | 67 | 1019.2 |
| 20260902140542 | 83 | 139 | 1.0 | 5.0 | 0.00 | 0.00 | 0.00 | 69 | 1019.3 |
| 20260902140103 | 82 | 198 | 1.0 | 5.0 | 0.00 | 0.00 | 0.00 | 71 | 1019.3 |
| 20260902135543 | 81 | 149 | 1.0 | 5.0 | 0.00 | 0.00 | 0.00 | 71 | 1019.3 |
| 20260902135043 | 81 | 196 | 1.0 | 5.0 | 0.00 | 0.00 | 0.00 | 72 | 1019.3 |
| 20260902134607 | 81 | 135 | 0.0 | 4.0 | 0.00 | 0.00 | 0.00 | 72 | 1019.4 |
| 20260902134042 | 81 | 218 | 0.0 | 4.0 | 0.00 | 0.00 | 0.00 | 72 | 1019.4 |
| 20260902133543 | 80 | 163 | 0.0 | 4.0 | 0.00 | 0.00 | 0.00 | 72 | 1019.4 |
| 20260902133057 | 80 | 162 | 0.0 | 5.0 | 0.00 | 0.00 | 0.00 | 72 | 1019.4 |
| 20260902132542 | 80 | 186 | 1.0 | 5.0 | 0.00 | 0.00 | 0.00 | 73 | 1019.4 |
| 20260902132042 | 80 | 239 | 1.0 | 5.0 | 0.00 | 0.00 | 0.00 | 74 | 1019.3 |
| 20260902131607 | 79 | 188 | 0.0 | 5.0 | 0.00 | 0.00 | 0.00 | 74 | 1019.3 |
| 20260902131043 | 79 | 154 | 1.0 | 4.0 | 0.00 | 0.00 | 0.00 | 74 | 1019.3 |
| 20260902130545 | 79 | 146 | 0.0 | 4.0 | 0.00 | 0.00 | 0.00 | 74 | 1019.3 |
| 20260902130103 | 78 | 142 | 1.0 | 4.0 | 0.00 | 0.00 | 0.00 | 74 | 1019.3 |
| 20260902125542 | 78 | 195 | 0.0 | 4.0 | 0.00 | 0.00 | 0.00 | 75 | 1019.4 |
| 20260902125044 | 78 | 134 | 0.0 | 3.0 | 0.00 | 0.00 | 0.00 | 75 | 1019.3 |
| 20260902124608 | 78 | 193 | 0.0 | 3.0 | 0.00 | 0.00 | 0.00 | 75 | 1019.3 |
| 20260902124043 | 77 | 163 | 0.0 | 3.0 | 0.00 | 0.00 | 0.00 | 76 | 1019.3 |
| 20260902123543 | 77 | 143 | 0.0 | 1.0 | 0.00 | 0.00 | 0.00 | 76 | 1019.4 |
| 20260902123103 | 77 | 0 | 0.0 | 1.0 | 0.00 | 0.00 | 0.00 | 76 | 1019.3 |
| 20260902122546 | 76 | 143 | 0.0 | 1.0 | 0.00 | 0.00 | 0.00 | 76 | 1019.3 |
| 20260902122042 | 76 | 0 | 0.0 | 3.0 | 0.00 | 0.00 | 0.00 | 76 | 1019.2 |
| 20260902121611 | 76 | 134 | 0.0 | 3.0 | 0.00 | 0.00 | 0.00 | 76 | 1019.1 |
| 20260902121042 | 76 | 113 | 1.0 | 3.0 | 0.00 | 0.00 | 0.00 | 76 | 1019.0 |
| 20260902120542 | 76 | 139 | 0.0 | 3.0 | 0.00 | 0.00 | 0.00 | 76 | 1018.9 |
| 20260902120058 | 76 | 126 | 1.0 | 3.0 | 0.00 | 0.00 | 0.00 | 77 | 1018.9 |
| 20260902115543 | 75 | 0 | 0.0 | 2.0 | 0.00 | 0.00 | 0.00 | 77 | 1018.8 |
| 20260902115046 | 75 | 130 | 1.0 | 2.0 | 0.00 | 0.00 | 0.00 | 77 | 1018.8 |
| 20260902114601 | 75 | 166 | 0.0 | 3.0 | 0.00 | 0.00 | 0.00 | 77 | 1018.7 |
| 20260902114045 | 75 | 131 | 0.0 | 3.0 | 0.00 | 0.00 | 0.00 | 77 | 1018.7 |
| 20260902113545 | 75 | 147 | 0.0 | 3.0 | 0.00 | 0.00 | 0.00 | 77 | 1018.5 |
| 20260902113110 | 75 | 146 | 0.0 | 2.0 | 0.00 | 0.00 | 0.00 | 77 | 1018.6 |
| 20260902112544 | 75 | 0 | 0.0 | 2.0 | 0.00 | 0.00 | 0.00 | 77 | 1018.6 |
| 20260902112043 | 75 | 142 | 0.0 | 2.0 | 0.00 | 0.00 | 0.00 | 76 | 1018.5 |
| 20260902111605 | 75 | 0 | 0.0 | 2.0 | 0.00 | 0.00 | 0.00 | 76 | 1018.5 |
| 20260902111042 | 75 | 138 | 0.0 | 2.0 | 0.00 | 0.00 | 0.00 | 76 | 1018.5 |
| 20260902110544 | 75 | 0 | 0.0 | 1.0 | 0.00 | 0.00 | 0.00 | 76 | 1018.5 |
| 20260902110107 | 75 | 146 | 0.0 | 1.0 | 0.00 | 0.00 | 0.00 | 76 | 1018.5 |
| 20260902105543 | 75 | 137 | 0.0 | 1.0 | 0.00 | 0.00 | 0.00 | 75 | 1018.5 |
| 20260902105042 | 76 | 0 | 0.0 | 3.0 | 0.00 | 0.00 | 0.00 | 75 | 1018.4 |
| 20260902104602 | 76 | 136 | 0.0 | 3.0 | 0.00 | 0.00 | 0.00 | 75 | 1018.4 |
| 20260902104043 | 76 | 0 | 0.0 | 3.0 | 0.00 | 0.00 | 0.00 | 75 | 1018.4 |
| 20260902103545 | 76 | 0 | 0.0 | 4.0 | 0.00 | 0.00 | 0.00 | 75 | 1018.4 |
| 20260902103059 | 76 | 146 | 1.0 | 4.0 | 0.00 | 0.00 | 0.00 | 75 | 1018.4 |
| 20260902102543 | 76 | 142 | 0.0 | 2.0 | 0.00 | 0.00 | 0.00 | 75 | 1018.3 |
| 20260902102044 | 76 | 139 | 0.0 | 2.0 | 0.00 | 0.00 | 0.00 | 74 | 1018.4 |
| 20260902101605 | 76 | 132 | 0.0 | 3.0 | 0.00 | 0.00 | 0.00 | 74 | 1018.2 |
| 20260902101042 | 76 | 145 | 0.0 | 3.0 | 0.00 | 0.00 | 0.00 | 74 | 1018.3 |
| 20260902100542 | 76 | 125 | 0.0 | 2.0 | 0.00 | 0.00 | 0.00 | 75 | 1018.3 |
| 20260902100110 | 76 | 0 | 0.0 | 2.0 | 0.00 | 0.00 | 0.00 | 74 | 1018.3 |
| 20260902095544 | 76 | 131 | 0.0 | 2.0 | 0.00 | 0.00 | 0.00 | 74 | 1018.3 |
| 20260902095043 | 76 | 0 | 0.0 | 2.0 | 0.00 | 0.00 | 0.00 | 74 | 1018.3 |
| 20260902094600 | 76 | 0 | 0.0 | 3.0 | 0.00 | 0.00 | 0.00 | 74 | 1018.2 |
| 20260902094043 | 76 | 146 | 0.0 | 3.0 | 0.00 | 0.00 | 0.00 | 74 | 1018.2 |
| 20260902093542 | 76 | 0 | 0.0 | 2.0 | 0.00 | 0.00 | 0.00 | 75 | 1018.2 |
| 20260902093058 | 76 | 0 | 0.0 | 1.0 | 0.00 | 0.00 | 0.00 | 75 | 1018.1 |
| 20260902092542 | 76 | 147 | 0.0 | 1.0 | 0.00 | 0.00 | 0.00 | 74 | 1018.1 |
| 20260902092042 | 76 | 148 | 0.0 | 2.0 | 0.00 | 0.00 | 0.00 | 74 | 1018.0 |
| 20260902091557 | 76 | 151 | 0.0 | 2.0 | 0.00 | 0.00 | 0.00 | 74 | 1017.9 |
| 20260902091043 | 76 | 147 | 0.0 | 2.0 | 0.00 | 0.00 | 0.00 | 74 | 1018.0 |
| 20260902090543 | 76 | 0 | 0.0 | 2.0 | 0.00 | 0.00 | 0.00 | 74 | 1018.0 |
| 20260902090059 | 76 | 159 | 0.0 | 2.0 | 0.00 | 0.00 | 0.00 | 74 | 1018.1 |
| 20260902085546 | 76 | 0 | 0.0 | 4.0 | 0.00 | 0.00 | 0.00 | 74 | 1018.1 |
| 20260902085042 | 76 | 0 | 0.0 | 4.0 | 0.00 | 0.00 | 0.00 | 74 | 1018.1 |
| 20260902084603 | 76 | 142 | 0.0 | 2.0 | 0.00 | 0.00 | 0.00 | 74 | 1018.1 |
| 20260902084043 | 76 | 200 | 0.0 | 4.0 | 0.00 | 0.00 | 0.00 | 73 | 1018.1 |
| 20260902083545 | 77 | 182 | 0.0 | 4.0 | 0.00 | 0.00 | 0.00 | 73 | 1018.1 |
| 20260902083105 | 76 | 144 | 0.0 | 2.0 | 0.00 | 0.00 | 0.00 | 74 | 1018.0 |
| 20260902082542 | 76 | 144 | 0.0 | 4.0 | 0.00 | 0.00 | 0.00 | 74 | 1018.1 |
| 20260902082043 | 77 | 193 | 0.0 | 4.0 | 0.00 | 0.00 | 0.00 | 74 | 1018.1 |
| 20260902081607 | 77 | 179 | 0.0 | 4.0 | 0.00 | 0.00 | 0.00 | 74 | 1018.1 |
| 20260902081045 | 76 | 144 | 1.0 | 3.0 | 0.00 | 0.00 | 0.00 | 74 | 1018.2 |
| 20260902080617 | 76 | 151 | 0.0 | 4.0 | 0.00 | 0.00 | 0.00 | 74 | 1018.2 |
| 20260902080543 | 76 | 151 | 0.0 | 4.0 | 0.00 | 0.00 | 0.00 | 74 | 1018.2 |
| 20260902080059 | 76 | 190 | 0.0 | 4.0 | 0.00 | 0.00 | 0.00 | 74 | 1018.2 |
| 20260902075542 | 76 | 153 | 0.0 | 3.0 | 0.00 | 0.00 | 0.00 | 75 | 1018.1 |
| 20260902075042 | 76 | 0 | 0.0 | 2.0 | 0.00 | 0.00 | 0.00 | 75 | 1018.1 |
| 20260902074600 | 76 | 157 | 0.0 | 2.0 | 0.00 | 0.00 | 0.00 | 75 | 1018.0 |
| 20260902074042 | 76 | 157 | 0.0 | 1.0 | 0.00 | 0.00 | 0.00 | 74 | 1018.0 |
| 20260902073543 | 76 | 159 | 0.0 | 2.0 | 0.00 | 0.00 | 0.00 | 74 | 1018.0 |
| 20260902073106 | 76 | 0 | 0.0 | 2.0 | 0.00 | 0.00 | 0.00 | 74 | 1018.1 |
| 20260902072542 | 76 | 158 | 0.0 | 3.0 | 0.00 | 0.00 | 0.00 | 74 | 1018.1 |
| 20260902072047 | 76 | 162 | 0.0 | 3.0 | 0.00 | 0.00 | 0.00 | 74 | 1018.0 |
| 20260902071600 | 76 | 159 | 0.0 | 3.0 | 0.00 | 0.00 | 0.00 | 74 | 1018.0 |
| 20260902071045 | 76 | 155 | 0.0 | 3.0 | 0.00 | 0.00 | 0.00 | 74 | 1018.0 |
| 20260902070543 | 76 | 167 | 0.0 | 3.0 | 0.00 | 0.00 | 0.00 | 74 | 1018.1 |
| 20260902070112 | 76 | 173 | 0.0 | 2.0 | 0.00 | 0.00 | 0.00 | 74 | 1018.0 |
| 20260902065544 | 76 | 139 | 0.0 | 3.0 | 0.00 | 0.00 | 0.00 | 74 | 1018.0 |
| 20260902065042 | 76 | 0 | 0.0 | 3.0 | 0.00 | 0.00 | 0.00 | 74 | 1018.1 |
| 20260902064611 | 76 | 0 | 0.0 | 1.0 | 0.00 | 0.00 | 0.00 | 73 | 1018.1 |
| 20260902064042 | 76 | 159 | 0.0 | 1.0 | 0.00 | 0.00 | 0.00 | 73 | 1018.1 |
| 20260902063545 | 76 | 160 | 0.0 | 1.0 | 0.00 | 0.00 | 0.00 | 73 | 1018.0 |
| 20260902063103 | 76 | 145 | 0.0 | 1.0 | 0.00 | 0.00 | 0.00 | 72 | 1018.1 |
| 20260902062547 | 76 | 153 | 0.0 | 1.0 | 0.00 | 0.00 | 0.00 | 72 | 1018.0 |
| 20260902062043 | 76 | 143 | 0.0 | 1.0 | 0.00 | 0.00 | 0.00 | 72 | 1018.0 |
| 20260902061045 | 76 | 0 | 0.0 | 1.0 | 0.00 | 0.00 | 0.00 | 71 | 1018.1 |
| 20260902060543 | 77 | 0 | 0.0 | 1.0 | 0.00 | 0.00 | 0.00 | 71 | 1018.0 |
| 20260902060114 | 77 | 0 | 0.0 | 1.0 | 0.00 | 0.00 | 0.00 | 71 | 1018.0 |
| 20260902055544 | 77 | 0 | 0.0 | 1.0 | 0.00 | 0.00 | 0.00 | 71 | 1018.0 |
| 20260902055043 | 77 | 0 | 0.0 | 5.0 | 0.00 | 0.00 | 0.00 | 70 | 1018.0 |
| 20260902054604 | 77 | 181 | 0.0 | 5.0 | 0.00 | 0.00 | 0.00 | 70 | 1018.0 |
| 20260902054042 | 77 | 136 | 0.0 | 2.0 | 0.00 | 0.00 | 0.00 | 70 | 1018.0 |
| 20260902053542 | 77 | 141 | 0.0 | 2.0 | 0.00 | 0.00 | 0.00 | 70 | 1017.9 |
| 20260902053124 | 77 | 145 | 0.0 | 2.0 | 0.00 | 0.00 | 0.00 | 70 | 1018.0 |
| 20260902052543 | 77 | 0 | 0.0 | 1.0 | 0.00 | 0.00 | 0.00 | 70 | 1017.9 |
| 20260902052043 | 77 | 0 | 0.0 | 2.0 | 0.00 | 0.00 | 0.00 | 70 | 1017.9 |
| 20260902051604 | 78 | 120 | 0.0 | 2.0 | 0.00 | 0.00 | 0.00 | 69 | 1017.8 |
| 20260902051044 | 78 | 161 | 0.0 | 5.0 | 0.00 | 0.00 | 0.00 | 69 | 1017.9 |
| 20260902050543 | 78 | 0 | 0.0 | 5.0 | 0.00 | 0.00 | 0.00 | 69 | 1018.0 |
| 20260902050121 | 78 | 116 | 0.0 | 4.0 | 0.00 | 0.00 | 0.00 | 69 | 1017.7 |
| 20260902045542 | 78 | 150 | 0.0 | 4.0 | 0.00 | 0.00 | 0.00 | 69 | 1017.8 |
| 20260902045045 | 78 | 153 | 0.0 | 1.0 | 0.00 | 0.00 | 0.00 | 69 | 1017.8 |
| 20260902044600 | 78 | 140 | 0.0 | 1.0 | 0.00 | 0.00 | 0.00 | 69 | 1017.7 |
| 20260902044042 | 78 | 157 | 0.0 | 1.0 | 0.00 | 0.00 | 0.00 | 68 | 1017.7 |
| 20260902043547 | 78 | 147 | 0.0 | 1.0 | 0.00 | 0.00 | 0.00 | 68 | 1017.7 |
| 20260902043103 | 78 | 0 | 0.0 | 1.0 | 0.00 | 0.00 | 0.00 | 68 | 1017.7 |